Theta_e
327 320 321 320 308 307 301 305 306 307 307 316 320 317 314 320 316 311 334 338 340 331 338 346 346 347 346 345 346 345 346 345 343 343 343 345 343 342 341 343 344 342 340 339 338 338 338 337 335
323 320 317 315 303 299 301 307 304 307 315 318 319 316 315 317 327 328 330 339 338 329 339 344 344 346 347 347 347 346 347 345 344 346 345 344 342 341 340 340 342 340 337 337 337 337 337 337 336
322 319 311 308 303 299 301 307 307 312 315 318 316 318 319 320 328 330 336 340 332 328 337 343 343 346 347 347 347 346 346 346 345 344 343 342 340 338 338 338 340 338 335 336 336 336 336 336 335
316 316 312 304 301 304 305 309 310 310 313 316 316 314 322 330 329 334 337 338 329 329 339 341 344 347 347 346 346 347 346 345 345 343 341 340 339 338 338 337 338 335 334 335 334 335 335 334 333
316 311 302 303 304 307 309 310 312 309 311 312 315 314 318 328 336 336 336 334 328 330 341 342 343 345 346 345 346 345 345 345 343 343 341 341 340 339 339 337 335 335 333 333 332 332 333 332 331
308 309 300 298 303 309 310 309 310 310 311 311 312 311 320 331 333 334 336 330 329 336 340 341 338 340 343 344 344 343 343 344 343 342 342 340 341 340 339 337 335 334 333 332 331 330 330 330 329
306 303 300 301 302 305 310 311 306 308 310 310 313 308 321 327 333 334 334 329 329 338 339 340 341 339 337 339 340 341 341 341 341 340 339 337 337 336 336 336 336 333 333 332 331 331 330 330 329
309 305 299 300 300 302 310 309 309 308 308 314 316 306 315 328 332 332 333 328 326 332 339 338 337 339 340 337 334 336 337 338 337 335 333 331 332 332 333 332 334 336 333 334 332 331 330 330 328
312 299 296 298 300 304 310 308 310 311 307 311 315 316 326 330 332 329 328 326 323 329 337 338 336 336 337 338 334 331 332 331 330 329 327 326 327 328 326 327 332 335 334 333 332 332 331 330 329
304 298 298 303 304 303 308 307 309 306 306 307 314 323 329 329 330 327 326 324 320 324 330 337 336 335 335 337 335 335 334 331 329 328 326 327 327 327 328 325 328 331 330 332 333 332 331 328 323
301 297 302 303 305 306 305 304 311 307 304 308 310 319 326 326 327 325 327 324 320 323 327 334 336 334 332 333 334 333 330 329 329 329 328 327 326 326 326 325 323 324 320 325 327 326 325 324 321
292 297 302 304 306 304 301 303 303 309 308 311 312 321 325 323 324 325 325 324 322 321 326 331 333 332 331 336 334 333 332 329 326 327 328 326 325 324 323 324 323 323 323 322 323 324 324 323 323
293 295 298 300 303 305 304 302 303 306 311 311 313 322 324 323 324 326 328 328 325 320 322 330 331 332 332 334 334 333 332 328 327 327 328 327 325 324 324 323 323 323 324 323 323 323 323 323 323
295 295 295 298 300 304 303 302 304 305 308 308 311 315 322 323 325 326 327 327 327 325 320 327 331 331 332 329 332 331 331 327 326 326 327 327 326 325 325 324 324 322 323 323 323 323 322 322 322
297 292 294 295 298 299 303 299 300 305 307 308 311 313 317 322 325 325 328 328 329 329 324 321 327 331 330 328 329 329 328 328 326 326 327 327 327 325 325 324 323 323 323 323 322 322 323 322 323
292 292 286 293 295 299 299 293 301 305 305 305 307 307 315 318 322 325 328 328 330 331 329 323 323 328 329 327 327 328 328 326 326 326 326 327 327 327 325 324 323 324 322 322 321 321 321 321 321
290 283 286 288 295 295 296 292 301 305 304 304 305 307 311 317 319 323 327 328 330 331 330 327 323 322 325 326 327 328 328 326 325 325 325 326 326 327 325 324 323 324 322 321 321 321 321 321 322
283 284 287 286 291 293 291 294 300 302 303 303 304 306 307 316 319 322 325 328 330 331 331 330 328 325 324 324 325 326 325 325 325 325 326 327 326 326 325 324 323 323 322 322 322 323 324 323 323
288 286 286 290 294 292 291 293 298 300 298 298 301 303 306 310 319 323 325 326 329 328 330 330 328 328 327 324 323 323 323 327 328 327 328 328 328 327 325 324 324 326 324 323 324 324 323 322 322
286 285 285 290 293 294 293 292 297 299 299 299 300 302 304 309 314 322 324 325 326 327 329 330 329 330 331 330 329 328 329 329 330 330 331 331 329 328 327 326 327 328 326 326 326 324 322 320 322
285 283 284 286 291 293 293 289 293 297 300 300 302 302 303 307 311 317 323 325 325 325 326 329 330 331 332 332 331 329 329 329 329 329 329 329 330 330 331 330 329 328 328 326 326 326 321 318 320
282 288 289 287 286 283 290 278 289 293 296 298 299 301 301 303 310 315 319 321 326 325 328 329 331 332 333 332 330 328 328 326 326 327 328 331 332 331 331 330 329 328 328 327 327 327 323 321 318
285 290 289 287 285 284 287 284 286 292 292 296 298 301 301 303 305 309 317 319 315 324 328 329 331 332 332 332 331 329 328 328 328 329 329 330 331 331 331 331 330 329 328 328 328 327 326 325 322
291 288 288 289 286 278 283 284 283 287 292 294 294 295 300 301 300 301 304 308 308 313 317 326 328 329 329 331 331 330 328 328 324 325 326 326 327 328 328 329 328 328 328 327 326 326 326 325 324
288 285 277 274 273 274 284 281 284 292 291 290 290 292 293 298 297 298 301 303 305 308 313 320 324 323 327 328 327 328 327 326 325 325 325 325 325 325 326 327 327 327 328 328 328 326 326 325 324
286 285 278 272 274 275 283 278 285 289 291 292 294 294 294 295 298 300 302 304 304 306 309 314 316 317 320 322 322 323 324 324 324 324 324 323 323 322 323 323 325 326 326 326 327 326 325 324 323
286 282 288 281 275 275 280 284 289 290 289 291 293 294 294 295 297 299 303 307 307 307 308 306 306 309 311 311 313 314 314 314 313 313 314 315 317 317 318 320 322 323 324 324 325 323 321 322 322
288 290 281 283 269 269 276 278 280 285 286 289 291 292 293 295 297 299 302 304 304 304 303 308 309 309 310 311 311 311 311 312 312 312 311 311 311 314 315 319 320 321 321 320 321 320 318 318 318
284 282 285 284 281 275 274 275 284 285 287 288 291 293 293 294 295 296 297 298 300 300 301 301 302 301 301 302 302 302 302 303 303 304 304 306 306 306 307 310 311 311 312 313 316 313 313 313 312
289 286 286 278 278 279 278 277 288 287 289 292 292 293 292 293 293 294 295 296 296 297 298 299 299 299 300 300 301 301 301 301 300 301 301 302 302 302 302 303 303 303 303 305 305 306 306 306 306
Wind_Speed
18 14 4 3 3 4 9 11 3 3 2 6 5 5 4 12 4 4 6 8 20 18 15 12 16 16 15 15 14 13 13 13 14 13 13 15 15 14 13 13 14 17 15 15 15 14 13 13 13
10 14 3 4 3 7 6 7 7 2 8 5 6 0 3 6 7 8 7 14 19 17 15 14 14 15 15 14 13 12 13 12 13 16 16 16 14 12 12 12 12 14 14 13 13 13 12 12 12
14 8 3 4 5 10 5 7 8 9 6 5 4 3 5 5 8 11 11 18 18 16 14 14 14 16 14 13 13 11 12 12 16 16 15 14 13 12 11 11 11 12 12 11 11 11 11 11 10
5 3 4 4 11 15 8 2 7 8 3 4 4 7 7 5 8 8 13 18 16 16 13 16 15 16 14 11 11 11 13 15 14 14 14 13 12 12 11 12 10 10 9 9 9 9 10 9 9
4 4 3 6 11 12 13 3 6 3 7 7 4 7 6 4 10 14 11 15 15 15 16 14 15 15 15 12 12 14 14 14 13 13 12 12 12 11 11 9 10 9 8 8 8 7 7 7 7
4 3 4 7 12 14 11 2 2 4 6 6 6 4 4 8 9 11 10 12 12 15 16 14 13 13 13 13 14 14 14 13 12 12 12 7 13 11 12 11 9 8 7 7 7 6 5 5 5
5 4 9 10 12 15 15 9 3 7 7 5 1 5 6 7 9 9 11 10 9 17 15 13 11 11 12 12 12 13 13 12 11 11 11 8 8 10 10 10 8 8 7 6 5 5 4 3 3
4 5 12 11 12 16 16 5 1 3 8 1 8 1 7 10 9 3 7 10 8 11 14 13 11 9 8 7 10 11 11 12 12 11 9 8 7 8 9 8 7 5 6 7 4 3 2 1 0
6 4 10 14 15 13 9 6 5 4 3 2 4 7 12 18 14 5 4 10 8 9 14 13 13 11 10 8 7 8 9 10 10 10 10 7 5 6 7 6 8 7 5 5 4 2 2 3 7
7 6 13 12 11 9 7 7 4 3 4 4 7 10 13 15 14 12 8 12 11 11 12 14 13 11 11 10 8 6 6 5 5 6 6 4 6 5 6 7 8 6 5 4 4 4 5 7 4
8 16 10 15 13 11 5 7 3 5 8 7 10 15 14 13 13 14 10 7 10 10 7 12 13 12 10 9 8 4 3 4 4 7 6 6 3 5 4 4 3 4 5 4 5 5 4 5 2
16 17 14 13 17 6 3 4 11 8 9 1 7 21 17 15 16 15 14 8 11 11 8 9 6 10 11 7 7 6 5 4 4 5 7 4 2 4 4 3 5 5 4 5 5 3 3 1 3
17 14 16 15 17 15 7 9 8 10 9 7 7 13 15 13 14 14 12 10 7 10 8 14 9 5 9 10 6 7 6 4 5 5 6 4 4 4 3 4 3 4 4 3 3 3 3 3 4
14 20 18 19 19 15 16 7 7 7 5 4 4 7 13 14 14 12 14 14 14 9 9 12 13 7 5 7 9 7 7 5 4 4 5 6 5 4 4 4 4 3 2 3 4 3 3 3 3
13 15 17 16 19 19 13 15 22 13 11 5 8 6 8 13 14 14 14 14 15 9 11 10 13 12 7 6 6 6 5 5 4 4 7 7 5 5 4 4 3 4 3 4 1 2 2 2 4
16 16 15 7 17 20 11 24 12 15 16 13 10 7 8 9 12 11 14 13 13 11 7 11 10 12 10 6 4 4 5 4 5 4 4 6 6 5 3 2 3 3 3 3 3 3 3 4 4
9 13 17 19 16 17 15 27 15 18 16 15 10 12 8 8 7 9 12 14 14 13 8 10 10 9 10 8 5 5 5 4 4 4 4 6 6 6 4 4 4 5 3 3 3 3 3 3 3
12 14 15 16 16 15 22 22 16 14 17 18 14 10 10 12 9 6 9 12 15 14 12 8 8 7 8 5 5 4 4 4 3 4 5 7 5 7 5 4 4 4 3 3 3 5 2 1 0
18 22 21 17 21 15 20 18 13 13 5 6 7 8 9 11 11 10 8 8 15 14 13 13 10 10 5 5 5 4 4 5 4 4 6 6 6 7 6 4 5 5 5 5 5 3 4 2 2
16 16 19 18 23 11 15 10 14 13 8 8 8 9 7 11 8 12 8 7 8 13 12 11 12 11 9 6 6 3 3 3 3 3 5 6 6 6 6 6 5 5 4 5 4 3 2 2 3
17 15 14 15 23 6 9 10 9 9 10 9 7 4 4 9 14 8 12 10 7 10 10 10 11 11 11 7 5 3 3 1 4 4 5 5 6 7 8 7 5 5 5 5 5 5 6 3 3
18 15 11 13 14 6 9 5 11 10 8 6 7 7 6 4 8 11 9 10 14 9 9 12 10 11 11 11 9 10 6 6 4 4 3 4 6 6 5 6 6 5 4 5 4 4 4 4 4
11 12 14 14 15 6 4 6 8 16 17 12 10 9 7 6 6 8 13 11 6 3 10 12 12 11 8 10 10 9 7 3 4 4 6 4 4 5 4 5 5 5 4 4 6 5 6 6 4
8 11 12 15 13 5 10 8 7 3 9 6 7 7 4 4 7 8 7 10 10 5 7 4 10 9 4 8 8 7 9 5 4 4 3 2 2 3 1 3 3 3 3 5 4 4 5 5 3
2 4 2 2 1 6 4 2 9 5 7 7 7 7 7 7 6 5 7 5 6 8 4 2 6 1 9 8 3 4 4 5 6 4 2 2 2 1 3 3 4 3 5 4 3 4 4 4 3
9 6 2 4 1 3 1 3 5 6 8 8 8 6 6 7 7 6 7 5 4 12 6 7 8 6 7 6 5 5 4 5 5 1 2 3 1 1 3 2 2 3 4 2 1 2 2 1 2
8 2 1 3 4 2 5 6 2 6 8 6 6 7 6 6 7 7 6 6 7 8 10 8 7 6 8 8 7 8 7 9 8 3 4 3 5 3 4 5 3 3 3 4 3 3 1 2 2
7 9 4 3 4 4 4 4 5 10 6 5 5 6 6 6 7 7 6 6 6 7 7 11 6 8 8 7 7 8 6 6 6 6 5 6 6 5 6 5 4 5 5 5 5 4 4 4 2
2 5 3 3 1 3 5 2 4 6 6 5 7 6 6 6 6 6 6 6 7 7 10 8 11 10 9 7 6 8 9 7 6 7 7 6 6 6 6 6 6 6 6 6 4 5 5 5 4
2 5 5 1 5 5 1 4 6 5 6 8 7 7 6 6 7 7 7 7 7 8 9 8 8 10 7 6 6 9 11 7 7 8 6 6 6 6 5 6 6 6 5 5 7 6 5 5 4
Wind_Direction
309 313 289 284 247 207 260 259 77 134 165 75 14 45 318 48 31 134 155 108 123 130 143 146 143 144 142 140 140 137 134 130 126 121 120 111 111 108 99 97 107 96 88 84 79 77 83 80 75
300 301 275 264 247 264 260 206 138 43 91 111 79 107 287 94 81 136 103 134 129 134 143 143 142 143 144 142 142 142 139 130 125 114 114 115 110 105 97 87 90 91 91 85 80 79 82 83 76
299 278 279 225 228 263 302 45 38 73 90 134 167 33 359 80 103 149 137 133 129 133 157 137 142 143 145 148 144 146 136 134 126 121 115 115 112 107 104 92 76 86 96 88 84 83 82 81 76
324 278 256 242 267 282 285 29 86 116 90 329 263 119 79 4 135 128 154 130 131 140 135 138 144 145 146 144 154 155 142 128 123 121 121 121 117 113 100 97 88 89 83 89 87 82 79 76 72
269 257 245 272 272 270 283 20 81 301 170 179 257 154 94 90 88 130 160 131 137 148 128 141 144 147 140 139 127 150 145 129 123 122 120 125 125 121 111 105 99 102 97 94 92 89 83 76 69
286 214 259 260 264 261 264 84 342 262 264 165 168 238 93 128 127 143 148 133 146 127 136 142 142 144 142 143 134 131 128 124 120 118 118 117 141 134 121 116 116 114 112 105 99 94 90 84 73
235 281 258 264 273 293 300 66 33 290 282 170 210 224 122 158 132 151 141 143 150 131 137 143 150 148 141 147 140 138 136 132 129 123 118 106 106 145 133 130 137 138 127 118 115 111 101 84 70
296 261 257 257 260 264 285 355 293 324 297 46 145 192 162 139 120 123 150 143 146 133 141 146 151 150 147 147 146 145 144 144 140 133 127 121 105 100 111 124 115 158 147 131 133 131 116 88 312
295 262 247 244 245 261 275 269 306 53 301 5 87 46 108 122 123 141 235 145 146 150 151 153 154 162 157 152 153 145 146 152 148 142 140 144 160 161 159 134 138 126 114 135 153 184 245 268 261
207 225 238 258 264 264 242 285 316 288 234 212 101 89 113 130 147 162 198 162 156 166 159 157 161 168 162 162 145 154 150 157 162 156 164 183 204 157 157 138 137 140 154 178 198 215 235 257 264
224 241 276 276 269 282 256 299 268 280 283 234 184 150 146 155 163 172 192 184 164 169 171 150 164 172 173 149 152 165 150 174 183 174 173 217 162 143 149 144 160 176 203 217 207 216 232 239 335
263 274 267 272 281 282 262 298 274 224 250 64 27 155 150 170 182 181 185 208 166 174 158 152 179 170 177 141 156 153 163 181 174 176 174 193 144 143 169 170 178 194 166 223 192 201 208 353 267
301 289 285 279 269 276 241 245 265 257 218 301 99 143 154 166 189 190 180 191 235 176 171 159 183 215 164 153 161 155 192 187 178 166 176 166 166 171 184 183 171 177 188 184 234 216 220 221 243
312 304 302 302 301 269 262 254 267 259 249 261 178 178 162 174 188 185 186 184 203 198 173 156 173 202 227 153 167 166 192 169 171 167 172 180 179 178 182 183 181 195 207 200 203 223 223 230 226
316 302 298 280 288 275 269 256 235 250 278 199 155 238 188 179 185 188 190 185 192 221 171 171 166 183 217 172 166 164 175 152 174 178 173 178 203 189 181 176 189 195 208 216 258 260 265 267 269
289 278 280 287 250 269 259 253 246 230 243 229 184 226 188 190 184 193 184 173 183 211 195 164 175 174 189 194 194 166 159 161 170 176 171 175 186 209 191 180 198 215 206 187 200 227 237 230 240
247 265 267 279 255 255 228 258 254 266 229 221 222 200 195 170 193 191 164 170 178 199 206 175 168 172 175 180 185 173 162 160 175 169 173 185 186 190 190 197 215 208 204 209 207 247 215 244 290
277 278 280 290 262 247 248 242 238 282 226 215 222 206 194 159 193 199 173 169 172 182 195 196 170 167 161 172 172 160 157 166 184 193 183 186 185 195 192 208 213 204 193 209 221 220 259 89 253
314 302 291 293 294 295 248 239 221 234 245 257 224 215 182 165 166 175 174 166 168 173 176 188 170 178 181 183 170 163 178 181 194 196 191 191 187 189 190 199 212 206 194 207 225 207 190 235 202
272 287 286 291 277 346 305 256 212 235 200 198 223 261 189 154 152 153 170 167 173 163 170 177 180 183 199 192 179 166 161 176 183 195 201 210 203 196 188 192 212 219 201 211 226 170 169 216 189
273 270 272 278 298 299 276 297 280 255 227 190 205 243 317 179 153 158 168 175 182 150 170 177 182 185 200 185 153 133 134 188 203 194 206 211 208 201 205 189 194 211 194 200 205 188 175 209 231
282 285 254 266 282 270 8 272 228 252 262 221 194 207 256 302 127 160 162 172 181 163 166 176 189 195 198 180 175 179 191 173 184 178 185 201 203 211 207 188 202 223 207 193 204 184 176 173 223
271 300 277 263 279 327 213 258 241 205 221 219 211 190 201 207 172 165 166 153 75 127 162 176 181 186 188 185 185 188 196 177 176 190 190 190 193 182 204 210 199 222 217 208 200 189 196 204 200
267 299 259 249 236 277 249 246 280 157 181 200 94 59 114 135 78 68 60 103 100 50 47 139 162 148 161 181 189 178 186 191 180 145 124 121 119 150 214 302 278 278 242 221 229 231 207 226 212
148 283 307 333 31 229 2 262 255 90 69 83 78 65 49 81 80 79 88 80 101 112 105 49 111 350 149 164 181 161 151 120 118 118 134 117 326 279 217 201 223 227 247 234 223 225 219 222 217
290 261 295 277 224 247 342 236 254 74 66 80 69 75 76 76 88 70 74 54 147 111 87 107 106 85 58 70 79 101 111 86 48 92 137 157 177 120 24 33 48 289 265 301 232 205 225 191 261
334 221 357 300 223 337 193 243 121 68 60 60 71 78 77 81 90 100 89 97 56 86 122 100 103 97 99 103 95 68 64 91 96 50 52 71 65 47 22 20 333 326 353 9 20 1 71 59 328
232 328 341 232 332 314 336 48 38 16 40 70 79 77 78 88 92 88 82 89 88 78 62 79 80 113 110 102 101 116 113 96 106 120 97 80 63 55 50 42 47 57 62 40 38 54 42 34 43
296 276 274 292 349 330 329 39 357 342 354 94 78 89 97 91 91 91 85 66 75 78 78 80 97 78 67 49 102 100 85 68 65 71 62 70 69 56 53 56 57 54 46 29 54 60 40 42 26
216 294 311 297 331 349 194 291 339 12 2 85 81 69 64 83 90 90 91 81 70 73 76 77 71 88 78 89 83 81 84 75 80 68 62 64 77 63 56 61 58 56 48 40 40 33 24 30 19